www.pogodaiklimat.ru

Погода и климат >> Архив погоды >> Россия >> Ямало-Ненецкий АО >> Салехард


АРХИВ ПОГОДЫ в Салехарде

Время (UTC), дата Ветер
(напр.,м/с)
 
Видим.   Явления Облачность Т
(С)
Тd
(С)
f
(%)
Тe
(С)
Тes
(С)
Комфортность P
(гПа)
Po
(гПа)
Тmin
(С)
Tmax
(С)
R
(мм)
R24
(мм)
S
(см)
18 11.12 ЮЗ 1 10 км 10/10 720 м
[Sc]
-8.0 -9.4 90 -10 -10 тепло 1014.7 1012.6
21 11.12 штиль 0 4000 м слабый снег 10/6 270 м
[Frnb Ac As]
-7.6 -9.0 90 -8 -8 тепло 1015.2 1013.1
00 12.12 З 1 10 км {снег} 10/0
[Ac und]
-6.7 -8.1 90 -9 -9 тепло 1015.4 1013.3
03 12.12 штиль 0 4000 м слабый снег 10/5 360 м
[Frnb Ac As]
-7.2 -8.6 90 -8 -8 тепло 1015.8 1013.7 -8.9 0.6 38
06 12.12 штиль 0 10 км слабый снег [диам. изморози 7 мм] 10/8 300 м
[Frnb Ac As]
-6.0 -7.2 91 -7 -7 тепло 1016.1 1014.0
09 12.12 З 1 10 км слабый снег 10/8 330 м
[Frnb Ac As]
-5.9 -7.2 91 -8 -8 тепло 1015.7 1013.6
12 12.12 В 1 10 км в посл. час снег [диам. изморози 7 мм] 10/5 1410 м
[Sc diur, vesp Ac trans Ci fib]
-9.3 -10.8 89 -12 -12 тепло 1015.3 1013.1
15 12.12 ЮВ 1 10 км 3/0
[Ci fib]
-12.0 -13.8 86 -14 -14 тепло 1015.1 1013.0 -5.3 0.6
18 12.12 Ю 1 10 км 8/0
[Ac trans]
-12.4 -14.3 86 -15 -15 тепло 1014.5 1012.3
21 12.12 ЮВ 1 10 км 6/0
[Ac trans]
-14.5 -16.5 85 -17 -17 тепло 1013.7 1011.6
00 13.12 ЮЗ 2 10 км [диам. изморози 7 мм] 5/0
[Ac trans]
-9.4 -10.9 89 -14 -14 тепло 1011.9 1009.8
03 13.12 ЮЗ 2 4000 м слабый снег 10/8 270 м
[Frnb Ac As]
-7.1 -8.6 89 -12 -12 тепло 1010.8 1008.7 -14.6 0.0 36
06 13.12 СЗ 3 20 км {снег} 10/0
[Ac und]
-4.5 -6.6 85 -10 -10 тепло 1011.5 1009.4
09 13.12 СЗ 3 20 км в посл. час крупа {ливн. осадки, метель} 3/3 600 м
[Cb calv]
-8.1 -11.5 76 -14 -14 тепло 1015.5 1013.4
12 13.12 СЗ 2 10 км {ливн. осадки, метель} ясно -10.5 -14.4 73 -15 -15 тепло 1018.0 1015.9
15 13.12 Ю 2 10 км 8/0
[Ac und]
-15.3 -18.0 80 -20 -20 по сезону 1017.0 1014.8 -4.2 0.2
18 13.12 ЮЗ 5 4000 м слабый снег 10/8 240 м
[Frnb Ac As]
-9.9 -12.2 83 -18 -18 по сезону 1011.3 1009.1
21 13.12 ЮЗ 7-12
{14}
4000 м слабый снег {метель} 10/8 270 м
[Frnb Ac As]
-5.0 -6.2 91 -13 -13 тепло 1004.6 1002.5
00 14.12 З 8-16
{16}
4000 м метель {снег} ясно -0.6 -3.1 83 -8 -8 тепло 1002.4 1000.4
03 14.12 З 9-16
{19}
4000 м метель ясно -1.0 -4.0 80 -9 -9 тепло 1002.5 1000.4 -15.3 0.9 33
06 14.12 ЮЗ 3
{19}
20 км позёмок {метель} 8/3 600 м
[Sc Ac As Ci fib]
+0.1 -3.7 76 -4 -4 тепло 1004.1 1002.0
09 14.12 З 9-14
{15}
20 км позёмок {ливн. осадки, метель} 10/6 800 м
[Cb calv Ac trans Cc]
+2.0 -2.9 70 -5 -5 тепло 1003.3 1001.3
12 14.12 З 4
{17}
10 км позёмок {ливн. осадки, метель} 8/4 300 м
[Cb calv Ac As]
+0.9 -3.5 72 -4 -4 тепло 1005.0 1003.0
15 14.12 З 6-11
{14}
10 км позёмок {метель} 10/5 600 м
[Sc Ac As]
+0.2 -4.3 72 -6 -6 тепло 1005.3 1003.3 +2.1 0.0
18 14.12 З 6-10
{14}
10 км {метель} 10/0
[Ac trans]
-1.2 -4.6 78 -8 -8 тепло 1005.7 1003.7
21 14.12 ЮЗ 2
{10}
2000 м снег 10/0 90 м
[As op]
-1.9 -3.3 90 -6 -6 тепло 1006.9 1004.9
00 15.12 Ю 1
{10}
10 км {снег} 6/0
[Ac trans Ci fib]
-7.2 -8.6 90 -10 -10 тепло 1009.2 1007.0
03 15.12 штиль 0 10 км 6/0
[Ac trans Ci fib]
-7.8 -9.2 90 -9 -9 тепло 1010.8 1008.6 -8.3 0.7 30
06 15.12 Ю 1 20 км [диам. изморози 1 мм] 9/5 1000 м
[Sc Ac trans]
-7.7 -9.1 90 -10 -10 тепло 1012.1 1010.0 -8.6
09 15.12 Ю 1 20 км 8/4 1000 м
[Sc Ac trans]
-8.2 -9.6 90 -11 -11 тепло 1012.2 1010.0
12 15.12 З 4 10 км [диам. изморози 0 мм] 6/6 600 м
[Sc diur, vesp]
-0.5 -4.0 77 -6 -6 тепло 1012.9 1010.9
15 15.12 СЗ 3 10 км 4/0
[Ac trans Ci fib]
-2.0 -4.9 81 -7 -7 тепло 1013.8 1011.7 -0.3
18 15.12 СЗ 3 10 км 6/0
[Ac lent Ci fib]
-2.3 -5.6 78 -7 -7 тепло 1014.2 1012.1
21 15.12 З 1 10 км 8/0
[Ac trans]
-5.2 -6.9 88 -8 -8 тепло 1014.7 1012.6
00 16.12 ЮЗ 2 10 км 8/0
[Ac trans Ci fib]
-1.6 -4.2 82 -5 -5 тепло 1013.3 1011.3
03 16.12 ЮЗ 2 10 км 8/3 600 м
[Sc Ac trans]
-1.2 -3.1 87 -5 -5 тепло 1011.3 1009.3 -5.4 29
06 16.12 З 2 20 км 10/6 500 м
[Cb calv Ac trans]
+1.9 -1.5 78 -1 -1 тепло 1010.7 1008.7
09 16.12 ЮВ 2 20 км 10/6 720 м
[Sc Ac trans]
+0.6 -2.0 83 -3 -3 тепло 1012.4 1010.4
12 16.12 З 4 10 км 8/4 720 м
[Sc Ac lent Ci fib]
+1.2 -1.3 83 -4 -4 тепло 1013.4 1011.3
15 16.12 З 4 10 км 8/5 750 м
[Sc Ac trans]
+1.9 -0.6 83 -3 -3 тепло 1014.4 1012.3 +2.9
18 16.12 З 5 10 км {ливн. осадки} 8/5 1000 м
[Sc Ac trans]
+2.1 -0.8 81 -3 -3 тепло 1015.0 1013.0
21 16.12 З 7-11
{11}
10 км 9/5 1000 м
[Sc Ac trans]
+2.4 -1.3 77 -4 -4 тепло 1014.9 1012.8
00 17.12 З 4
{11}
10 км 8/8 1000 м
[Sc diur, vesp]
+2.4 -2.2 72 -2 -2 тепло 1016.3 1014.2
03 17.12 З 5-10
{12}
10 км 8/5 1000 м
[Sc Ac trans]
+1.0 -1.8 82 -5 -5 тепло 1016.1 1014.1 +1.0 0.0 27
06 17.12 З 5-10
{13}
20 км 10/6 930 м
[Sc diur, vesp Ac trans Ci fib]
+0.7 -4.6 68 -5 -5 тепло 1016.1 1014.0 +0.4
09 17.12 З 6-10
{18}
20 км 10/5 1000 м
[Sc diur, vesp Ac trans Ci fib]
-2.9 -7.8 69 -10 -10 тепло 1014.9 1012.8
12 17.12 З 5
{18}
10 км 8/3 1000 м
[Sc diur, vesp Ac trans Ci fib]
-4.3 -8.6 72 -11 -11 тепло 1014.3 1012.2
15 17.12 З 7-13
{15}
10 км 10/0
[Ci fib]
-4.7 -9.3 70 -13 -13 тепло 1012.3 1010.2 +1.1
18 17.12 З 3
{15}
10 км 8/0
[Ac trans]
-5.3 -9.9 70 -11 -11 тепло 1011.1 1009.0
21 17.12 З 4 10 км 8/3 600 м
[Sc Ac trans]
-5.9 -10.3 71 -12 -12 тепло 1009.9 1007.8
00 18.12 З 6-10
{12}
10 км 10/0
[Ac und]
-6.5 -10.8 71 -14 -14 тепло 1008.4 1006.3
03 18.12 З 2
{11}
10 км 8/0
[Ac trans]
-6.2 -9.7 76 -10 -10 тепло 1007.1 1005.0 -7.2 27
06 18.12 З 5
{13}
20 км 6/0
[Ac trans Ci fib]
-6.0 -10.3 72 -13 -13 тепло 1006.8 1004.7
09 18.12 З 3 10 км слабый ливневой снег 10/8 400 м
[Cb calv Ac trans]
-5.2 -8.7 76 -11 -11 тепло 1007.0 1004.9
12 18.12 З 3
{10}
10 км в посл. час крупа {ливн. осадки} 8/3 300 м
[Cb calv Ac trans]
-5.6 -8.6 79 -11 -11 тепло 1007.7 1005.6

 

Местоположение метеостанции Салехард (Ямало-Ненецкий АО, Россия): широта 66.53 долгота 66.67 высота над уровнем моря 16 м.

В архиве по умолчанию представлена погода в Салехарде за последнюю неделю. Архивные данные за месяц целиком и за предыдущие месяцы, начиная с января 2011 года, Вы можете получить, выбрав интересующий диапазон дат из раскрывающегося списка и нажав кнопку "Ввод!".


*Определитесь, кто Вы:
робот инопланетянин человек

Внимание! Время в таблицах - всемирное. Для получения местного времени необходимо прибавить поправку, которая в Салехарде равна 5 ч.

Смотрите также архив погоды в соседних городах и на ближайших метеорологических станциях:

Погода в Харпе (Ямало-Ненецкий АО, Россия) (49 км)
Погода в Белоярске (Ямало-Ненецкий АО, Россия) (75 км)
Погода в Питляре (Ямало-Ненецкий АО, Россия) (85 км)
Погода в Полуе (Ямало-Ненецкий АО, Россия) (106 км)
Погода в Елецкой (Коми, Россия) (128 км)
Погода в Мужах (Ямало-Ненецкий АО, Россия) (155 км)
Погода в Воркуте (Коми, Россия) (158 км)
Погода в Петруни (Коми, Россия) (262 км)
Погода в Ныде (Ямало-Ненецкий АО, Россия) (277 км)
Погода в Лонг-Югане (Ямало-Ненецкий АО, Россия) (277 км)

Пояснения к столбцам:

Ветер - указаны скорость ветра в м/с - средняя за 10 мин, порывы в срок и между сроками (в фигурных скобках) и направление, откуда дует ветер: С - северный, СВ - северо-восточный, В - восточный, ЮВ - юго-восточный, Ю - южный, ЮЗ - юго-западный, З - западный, СЗ - северо-западный.
Видимость - горизонтальная дальность видимости в метрах или километрах. При видимости от 1 до 10 км при отсутствии осадков обычно наблюдается дымка, при ухудшении видимости до 1 км и менее - туман. В сухую погоду видимость может ухудшаться дымом, пылью или мглою.
Явления - указаны атмосферные явления, наблюдавшиеся в срок или в последний час перед сроком; фигурными скобками обозначены явления, наблюдавшиеся между сроками (за 1-3 часа до срока); квадратными скобками обозначены град или гололедные отложения с указанием их диаметра в мм.
Облачность - указаны через наклонную черту общая и нижняя облачность в баллах и высота нижней границы облаков в метрах; квадратными скобками обозначены формы облаков: Ci - перистые, Cs - перисто-слоистые, Cc - перисто-кучевые, Ac - высококучевые, As - высокослоистые, Sc - слоисто-кучевые, Ns - слоисто-дождевые, Cu - кучевые, Cb - кучево-дождевые. Подробнее классификацию облаков см. в Атласе облаков (PDF).
T - Температура воздуха - температура, измеренная на высоте 2 м над землей.
Td - Температура точки росы - температура, при понижении до которой содержащийся в воздухе водяной пар достигнет насыщения.
f - Относительная влажность воздуха - влажноcть воздуха, измеренная на высоте 2 м над землей.
Te - Эффективная температура - температура, которую ощущает одетый по сезону человек в тени. Характеристика душности погоды. При расчете учитывается влияние влажности воздуха и скорости ветра на теплоощущения человека.
Tes - Эффективная температура на солнце - температура, которую ощущает человек, с поправкой на солнечный нагрев. Характеристика знойности погоды. Зависит от высоты солнца над горизонтом, облачности и скорости ветра. Ночью, в пасмурную погоду, а также при ветре 12 м/с и более поправка равна нулю.
P - Атмосферное давление - приведенное к уровню моря атмосферное давление.
Po - Атмосферное давление - измеренное на уровне метеостанции атмосферное давление.
Tmin - Минимальная температура - минимум температуры воздуха на высоте 2 м над землей.
Tmax - Максимальная температура - максимум температуры воздуха на высоте 2 м над землей.
R - Количество осадков - Количество выпавших осадков за период времени, мм. При наведении курсора мыши на число - период времени, за который выпало указанное количество осадков.
R24 - Количество осадков - Количество выпавших осадков за 24 часа, мм.
S - Снежный покров - Высота снежного покрова, см. При наведении курсора мыши на число - состояние снежного покрова и степень покрытия местности в баллах.